Location: Unspecified
(0.0000°N, 0.0000°E)
Time: 21:02:56
(UTC+00:00)

Tiros 1 despin weight - Pass Details

Date: 30 May 2022
Orbit: 591 x 639 km, 48.2° (Epoch: 25 June)

Event Time Altitude Azimuth Distance (km) Brightness Sun altitude
Rises 02:53:47 0° 279° (W) 2,816 - -41.9°
Drops below altitude 10° 02:58:48 10° 230° (SW) 1,932 - -40.8°
Maximum altitude 02:58:53 10° 229° (SW) 1,932 - -40.8°
Sets 03:04:03 0° 178° (S) 2,852 - -39.6°
